Regional Weather Roundup
Issued by NWS Little Rock, AR

Home | Current Version | Previous Version | Text Only | Print | Product List | Glossary Off
Versions: 1 2 3 4 5 6 7 8 9 10 11 12 13 14 15 16 17 18 19 20 21 22 23 24 25 26 27 28 29 30 31 32 33 34 35 36 37 38 39 40 41 42 43 44 45 46 47 48 49 50

000
ASUS44 KLZK 010005
RWRLZK

WEATHER ROUNDUP FOR ARKANSAS
NATIONAL WEATHER SERVICE LITTLE ROCK AR
600 PM CST SAT JAN 31 2015

NOTE: "FAIR" INDICATES FEW OR NO CLOUDS BELOW 12,000 FEET WITH NO
SIGNIFICANT WEATHER AND/OR OBSTRUCTIONS TO VISIBILITY.

ARZ001-003-010-029-010100-
NORTHWEST ARKANSAS

CITY           SKY/WX    TMP DP  RH WIND       PRES   REMARKS
FAYETTEVILLE   CLOUDY    45  26  47 SE6       30.04F
6HR MIN TEMP:  44; 6HR MAX TEMP:  47;

FORT SMITH     CLOUDY    49  28  44 E8        30.06S
6HR MIN TEMP:  49; 6HR MAX TEMP:  53;

HARRISON       CLOUDY    42  25  50 SE10      30.06F
6HR MIN TEMP:  42; 6HR MAX TEMP:  46;

BENTONVILLE    CLOUDY    46  25  42 SE10      30.03F
6HR MIN TEMP:  46; 6HR MAX TEMP:  48;

ROGERS         CLOUDY    46  26  45 SE8       30.03F
6HR MIN TEMP:  46; 6HR MAX TEMP:  48;

SILOAM SPGS    CLOUDY   N/A N/A N/A SE8       30.02F
HIGHFILL       CLOUDY    46  27  47 SE10      30.02F
6HR MIN TEMP:  45; 6HR MAX TEMP:  48;

SPRINGDALE     CLOUDY    46  27  46 SE8       30.05F
$$

ARZ004-005-016-010100-
NORTH CENTRAL ARKANSAS

CITY           SKY/WX    TMP DP  RH WIND       PRES   REMARKS
BATESVILLE     CLOUDY    43  27  52 E7        30.15R
6HR MIN TEMP:  43; 6HR MAX TEMP:  46;

FLIPPIN        CLOUDY    45  21  39 SE7       30.10S
6HR MIN TEMP:  45; 6HR MAX TEMP:  48;

MTN HOME       CLOUDY    44  22  41 SE9       30.10S
6HR MIN TEMP:  43; 6HR MAX TEMP:  47;

$$

ARZ040-041-010100-
WEST CENTRAL ARKANSAS

CITY           SKY/WX    TMP DP  RH WIND       PRES   REMARKS
MENA           CLOUDY    50  32  50 E6        30.05F
MOUNT IDA      CLOUDY    46  29  51 SE6       30.06F
6HR MIN TEMP:  45; 6HR MAX TEMP:  49;

$$

ARZ009-017-025-026-028-010100-
NORTHEAST ARKANSAS

CITY           SKY/WX    TMP DP  RH WIND       PRES   REMARKS
CORNING        FAIR      41  32  70 E13       30.16F
JONESBORO      CLOUDY    42  30  62 E9        30.19S
6HR MIN TEMP:  41; 6HR MAX TEMP:  44;

NEWPORT        CLOUDY    44  31  60 SE12      30.17F
6HR MIN TEMP:  43; 6HR MAX TEMP:  46;

WALNUT RIDGE   CLOUDY    43  28  56 SE12      30.15F
6HR MIN TEMP:  43; 6HR MAX TEMP:  45;

BLYTHEVILLE    CLOUDY    44  28  53 SE8       30.20F
6HR MIN TEMP:  44; 6HR MAX TEMP:  48;

$$

ARZ022-023-033-042-044-010100-
CENTRAL ARKANSAS

CITY           SKY/WX    TMP DP  RH WIND       PRES   REMARKS
LITTLE ROCK    CLOUDY    45  28  51 E8        30.15F
6HR MIN TEMP:  45; 6HR MAX TEMP:  48;

N LITTLE ROCK  CLOUDY    44  31  62 SE9G16    30.15F
6HR MIN TEMP:  43; 6HR MAX TEMP:  46;

JACKSONVILLE   CLOUDY    44  29  55 E5        30.14F
6HR MIN TEMP:  44; 6HR MAX TEMP:  47;

SEARCY         CLOUDY    44  28  53 E7        30.18S
6HR MIN TEMP:  44; 6HR MAX TEMP:  49;

HOT SPRINGS    CLOUDY    47  28  47 SE6       30.12S
6HR MIN TEMP:  45; 6HR MAX TEMP:  49;

RUSSELLVILLE   CLOUDY    45  28  51 E6        30.10F
6HR MIN TEMP:  44; 6HR MAX TEMP:  48;

CLINTON        FAIR      41  32  70 CALM      30.14F
$$

ARZ036-010100-
EAST ARKANSAS

CITY           SKY/WX    TMP DP  RH WIND       PRES   REMARKS
WEST MEMPHIS   CLOUDY    45  27  49 E8        30.17F
6HR MIN TEMP:  43; 6HR MAX TEMP:  46;

$$

ARZ050-053-066-070-073-010100-
SOUTHWEST ARKANSAS

CITY           SKY/WX    TMP DP  RH WIND       PRES   REMARKS
ARKADELPHIA    FAIR      47  34  60 CALM      30.14S
6HR MIN TEMP:  45; 6HR MAX TEMP:  51;

CAMDEN         CLOUDY    50  30  46 MISG      30.11F
TEXARKANA      CLOUDY    50  34  54 SE3       30.09S
6HR MIN TEMP:  49; 6HR MAX TEMP:  54;

EL DORADO      CLOUDY    51  34  52 SE3       30.12F
6HR MIN TEMP:  50; 6HR MAX TEMP:  54;

DE QUEEN       CLOUDY    50  32  50 SE3       30.07R
6HR MIN TEMP:  47; 6HR MAX TEMP:  53;

$$

ARZ056-057-069-010100-
SOUTHEAST ARKANSAS

CITY           SKY/WX    TMP DP  RH WIND       PRES   REMARKS
PINE BLUFF     CLOUDY    45  34  65 E5        30.16S
6HR MIN TEMP:  43; 6HR MAX TEMP:  49;

STUTTGART      CLOUDY    45  28  53 E8        30.17S
6HR MIN TEMP:  43; 6HR MAX TEMP:  46;

MONTICELLO     CLOUDY    50  32  50 E3        30.15S
6HR MIN TEMP:  49; 6HR MAX TEMP:  56;


$$





USA.gov is the U.S. government's official web portal to all federal, state and local government web resources and services.